{"data":{"norad_id":68171,"intl_designator":"2026-050E","name":"STARLINK-37034","alt_names":[],"object_type":"PAYLOAD","status":"ACTIVE","operator":null,"country":"US","launch_date":"2026-03-14","launch_site_code":"AFETR","launch_vehicle":null,"mission":null,"orbit_class":"UNKNOWN","rcs_meters":null,"size_class":null,"mass_kg":null,"dimensions":null,"purposes":["comms"],"wikipedia_slug":null,"has_3d_model":false,"image_url":null,"decayed_at":null,"tle_current":{"epoch":"2026-05-25T01:24:10.118016Z","epoch_age_seconds":80298,"freshness":"FRESH","line1":"1 68171U 26050E   26145.05845044  .00030915  00000+0  92234-3 0  9994","line2":"2 68171  53.1589 271.4520 0000954  74.4888 285.6220 15.34399759 12388","mean_motion":15.34399759,"eccentricity":9.54e-5,"inclination_deg":53.1589,"raan_deg":271.452,"arg_perigee_deg":74.4888,"mean_anomaly_deg":285.622,"bstar":0.00092234,"rev_number":1238,"period_min":93.847772821502,"perigee_km":462.05134028274,"apogee_km":463.35657273724,"semimajor_km":6840.84095651,"source":"CELESTRAK","updated_at":"2026-05-25T13:38:21.853029Z"}}}